"datetime","temp","dp","rain_mm","uv","solar","mb","wind_mph","gust_mph","windchill","rh"
"2020-05-11 00:00:00",6.9,1.0,0.0,0.0,0,1014.9,3,6,5.0,66
"2020-05-11 00:01:00",6.9,1.0,0.0,0.0,0,1014.9,3,4,5.8,66
"2020-05-11 00:02:00",6.9,1.0,0.0,0.0,0,1015.0,5,8,4.4,66
"2020-05-11 00:03:00",6.9,1.0,0.0,0.0,0,1015.0,6,15,3.0,66
"2020-05-11 00:04:00",6.8,0.9,0.0,0.0,0,1015.0,5,12,3.4,66
"2020-05-11 00:05:00",6.8,0.7,0.0,0.0,0,1014.9,3,6,4.9,65
"2020-05-11 00:06:00",6.8,0.7,0.0,0.0,0,1014.9,3,4,5.7,65
"2020-05-11 00:07:00",6.8,0.7,0.0,0.0,0,1014.9,5,10,3.8,65
"2020-05-11 00:08:00",6.8,0.7,0.0,0.0,0,1015.0,2,4,5.7,65
"2020-05-11 00:09:00",6.8,0.7,0.0,0.0,0,1015.0,3,5,5.2,65
"2020-05-11 00:10:00",6.8,0.9,0.0,0.0,0,1015.0,4,9,4.0,66
"2020-05-11 00:11:00",6.8,0.7,0.0,0.0,0,1014.8,4,10,3.8,65
"2020-05-11 00:12:00",6.7,0.8,0.0,0.0,0,1014.9,3,8,4.2,66
"2020-05-11 00:13:00",6.7,0.8,0.0,0.0,0,1015.0,4,6,4.8,66
"2020-05-11 00:14:00",6.7,0.6,0.0,0.0,0,1014.9,3,5,5.1,65
"2020-05-11 00:15:00",6.7,0.6,0.0,0.0,0,1014.8,4,10,3.7,65
"2020-05-11 00:16:00",6.7,0.8,0.0,0.0,0,1014.8,4,7,4.4,66
"2020-05-11 00:17:00",6.7,0.8,0.0,0.0,0,1014.9,3,8,4.2,66
"2020-05-11 00:18:00",6.7,0.8,0.0,0.0,0,1014.9,4,9,3.9,66
"2020-05-11 00:19:00",6.7,0.6,0.0,0.0,0,1014.9,5,12,3.3,65
"2020-05-11 00:20:00",6.7,0.6,0.0,0.0,0,1014.8,3,6,4.8,65
"2020-05-11 00:21:00",6.7,0.6,0.0,0.0,0,1014.9,5,8,4.2,65
"2020-05-11 00:22:00",6.7,0.6,0.0,0.0,0,1014.8,4,6,4.8,65
"2020-05-11 00:23:00",6.7,0.6,0.0,0.0,0,1014.9,2,9,3.9,65
"2020-05-11 00:24:00",6.7,0.6,0.0,0.0,0,1014.8,3,6,4.8,65
"2020-05-11 00:25:00",6.7,0.6,0.0,0.0,0,1014.8,4,9,3.9,65
"2020-05-11 00:26:00",6.7,0.6,0.0,0.0,0,1014.8,7,12,3.3,65
"2020-05-11 00:27:00",6.6,0.5,0.0,0.0,0,1014.8,4,8,4.2,65
"2020-05-11 00:28:00",6.6,0.5,0.0,0.0,0,1015.0,2,7,4.4,65
"2020-05-11 00:29:00",6.6,0.3,0.0,0.0,0,1015.0,5,7,4.3,64
"2020-05-11 00:30:00",6.6,0.3,0.0,0.0,0,1015.0,4,7,4.3,64
"2020-05-11 00:31:00",6.6,0.5,0.0,0.0,0,1014.9,5,11,3.4,65
"2020-05-11 00:32:00",6.6,0.3,0.0,0.0,0,1014.9,3,6,4.6,64
"2020-05-11 00:33:00",6.6,0.5,0.0,0.0,0,1015.0,3,4,5.4,65
"2020-05-11 00:34:00",6.6,0.5,0.0,0.0,0,1014.9,3,5,5.0,65
"2020-05-11 00:35:00",6.6,0.3,0.0,0.0,0,1014.9,6,16,2.5,64
"2020-05-11 00:36:00",6.6,0.3,0.0,0.0,0,1015.0,4,7,4.3,64
"2020-05-11 00:37:00",6.6,0.3,0.0,0.0,0,1015.0,3,8,4.0,64
"2020-05-11 00:38:00",6.6,0.3,0.0,0.0,0,1015.0,4,11,3.4,64
"2020-05-11 00:39:00",6.6,0.3,0.0,0.0,0,1014.9,4,14,2.8,64
"2020-05-11 00:40:00",6.5,0.2,0.0,0.0,0,1015.0,3,6,4.5,64
"2020-05-11 00:41:00",6.6,0.5,0.0,0.0,0,1015.0,4,10,3.6,65
"2020-05-11 00:42:00",6.6,0.3,0.0,0.0,0,1014.9,4,5,4.9,64
"2020-05-11 00:43:00",6.5,0.2,0.0,0.0,0,1015.1,3,5,4.9,64
"2020-05-11 00:44:00",6.5,0.2,0.0,0.0,0,1015.0,7,14,2.7,64
"2020-05-11 00:45:00",6.5,0.2,0.0,0.0,0,1015.0,5,7,4.2,64
"2020-05-11 00:46:00",6.5,0.2,0.0,0.0,0,1014.9,3,8,3.9,64
"2020-05-11 00:47:00",6.5,0.2,0.0,0.0,0,1014.9,3,10,3.4,64
"2020-05-11 00:48:00",6.5,0.2,0.0,0.0,0,1014.9,4,10,3.4,64
"2020-05-11 00:49:00",6.5,0.2,0.0,0.0,0,1014.9,3,4,5.3,64
"2020-05-11 00:50:00",6.5,0.2,0.0,0.0,0,1015.0,2,5,4.9,64
"2020-05-11 00:51:00",6.4,0.3,0.0,0.0,0,1014.9,3,6,4.4,65
"2020-05-11 00:52:00",6.4,0.1,0.0,0.0,0,1015.0,7,15,2.4,64
"2020-05-11 00:53:00",6.4,0.1,0.0,0.0,0,1014.8,4,7,4.1,64
"2020-05-11 00:54:00",6.4,0.1,0.0,0.0,0,1014.9,4,11,3.1,64
"2020-05-11 00:55:00",6.4,0.1,0.0,0.0,0,1014.9,3,5,4.8,64
"2020-05-11 00:56:00",6.4,0.1,0.0,0.0,0,1015.0,2,4,5.2,64
"2020-05-11 00:57:00",6.4,0.3,0.0,0.0,0,1014.9,4,9,3.6,65
"2020-05-11 00:58:00",6.4,0.3,0.0,0.0,0,1014.9,4,6,4.4,65
"2020-05-11 00:59:00",6.4,0.3,0.0,0.0,0,1014.9,3,5,4.8,65
"2020-05-11 01:00:00",6.4,0.3,0.0,0.0,0,1014.8,3,7,4.1,65
"2020-05-11 01:01:00",6.3,0.2,0.0,0.0,0,1014.9,7,18,1.8,65
"2020-05-11 01:02:00",6.3,0.2,0.0,0.0,0,1014.9,4,7,4.0,65
"2020-05-11 01:03:00",6.3,0.2,0.0,0.0,0,1014.9,3,6,4.3,65
"2020-05-11 01:04:00",6.3,0.2,0.0,0.0,0,1014.8,2,5,4.6,65
"2020-05-11 01:05:00",6.3,0.2,0.0,0.0,0,1014.9,3,6,4.3,65
"2020-05-11 01:06:00",6.3,0.2,0.0,0.0,0,1015.0,4,9,3.4,65
"2020-05-11 01:07:00",6.3,0.2,0.0,0.0,0,1014.9,3,4,5.1,65
"2020-05-11 01:08:00",6.3,0.2,0.0,0.0,0,1014.9,4,11,3.0,65
"2020-05-11 01:09:00",6.3,0.2,0.0,0.0,0,1014.9,3,7,4.0,65
"2020-05-11 01:10:00",6.3,0.2,0.0,0.0,0,1014.9,2,3,"",65
"2020-05-11 01:11:00",6.3,0.2,0.0,0.0,0,1014.9,2,3,"",65
"2020-05-11 01:12:00",6.3,0.2,0.0,0.0,0,1014.9,3,8,3.7,65
"2020-05-11 01:13:00",6.3,0.2,0.0,0.0,0,1014.9,3,7,4.0,65
"2020-05-11 01:14:00",6.2,0.1,0.0,0.0,0,1014.9,2,5,4.5,65
"2020-05-11 01:15:00",6.2,0.3,0.0,0.0,0,1014.9,2,6,4.2,66
"2020-05-11 01:16:00",6.2,0.3,0.0,0.0,0,1014.9,2,7,3.8,66
"2020-05-11 01:17:00",6.2,0.3,0.0,0.0,0,1014.9,3,8,3.6,66
"2020-05-11 01:18:00",6.1,0.2,0.0,0.0,0,1014.9,3,11,2.7,66
"2020-05-11 01:19:00",6.1,0.2,0.0,0.0,0,1014.9,3,6,4.0,66
"2020-05-11 01:20:00",6.1,0.2,0.0,0.0,0,1014.8,5,11,2.7,66
"2020-05-11 01:21:00",6.1,0.2,0.0,0.0,0,1014.8,2,4,4.9,66
"2020-05-11 01:22:00",6.1,0.2,0.0,0.0,0,1014.9,3,8,3.6,66
"2020-05-11 01:23:00",6.1,0.2,0.0,0.0,0,1014.9,4,9,3.3,66
"2020-05-11 01:24:00",6.1,0.2,0.0,0.0,0,1015.0,3,5,4.4,66
"2020-05-11 01:25:00",6.1,0.2,0.0,0.0,0,1014.8,3,6,4.0,66
"2020-05-11 01:26:00",6.1,0.2,0.0,0.0,0,1014.9,3,8,3.4,66
"2020-05-11 01:27:00",6.2,0.3,0.0,0.0,0,1014.9,2,5,4.5,66
"2020-05-11 01:28:00",6.1,0.2,0.0,0.0,0,1014.9,4,8,3.4,66
"2020-05-11 01:29:00",6.1,0.2,0.0,0.0,0,1014.8,5,11,2.7,66
"2020-05-11 01:30:00",6.1,0.2,0.0,0.0,0,1014.9,4,8,3.6,66
"2020-05-11 01:31:00",6.1,0.4,0.0,0.0,0,1014.9,2,8,3.4,67
"2020-05-11 01:32:00",6.1,0.4,0.0,0.0,0,1014.9,4,6,4.0,67
"2020-05-11 01:33:00",6.1,0.4,0.0,0.0,0,1014.9,3,7,3.7,67
"2020-05-11 01:34:00",6.1,0.4,0.0,0.0,0,1014.9,2,4,4.9,67
"2020-05-11 01:35:00",6.1,0.4,0.0,0.0,0,1014.9,3,8,3.4,67
"2020-05-11 01:36:00",6.1,0.4,0.0,0.0,0,1014.9,3,7,3.7,67
"2020-05-11 01:37:00",6.1,0.6,0.0,0.0,0,1014.9,4,7,3.7,68
"2020-05-11 01:38:00",6.1,0.4,0.0,0.0,0,1014.9,2,6,4.0,67
"2020-05-11 01:39:00",6.1,0.4,0.0,0.0,0,1014.9,4,8,3.4,67
"2020-05-11 01:40:00",6.1,0.4,0.0,0.0,0,1014.8,5,14,2.0,67
"2020-05-11 01:41:00",6.1,0.4,0.0,0.0,0,1014.8,4,10,2.9,67
"2020-05-11 01:42:00",6.1,0.4,0.0,0.0,0,1014.8,4,11,2.7,67
"2020-05-11 01:43:00",6.1,0.4,0.0,0.0,0,1014.9,4,8,3.4,67
"2020-05-11 01:44:00",6.0,0.3,0.0,0.0,0,1014.9,4,6,4.0,67
"2020-05-11 01:45:00",6.1,0.4,0.0,0.0,0,1014.8,3,6,3.9,67
"2020-05-11 01:46:00",6.1,0.6,0.0,0.0,0,1014.8,3,7,3.7,68
"2020-05-11 01:47:00",6.0,0.3,0.0,0.0,0,1014.8,3,7,3.7,67
"2020-05-11 01:48:00",6.0,0.5,0.0,0.0,0,1014.8,4,10,2.9,68
"2020-05-11 01:49:00",6.0,0.5,0.0,0.0,0,1014.8,3,5,4.3,68
"2020-05-11 01:50:00",5.9,0.2,0.0,0.0,0,1014.7,5,12,2.4,67
"2020-05-11 01:51:00",6.0,0.5,0.0,0.0,0,1014.8,4,7,3.6,68
"2020-05-11 01:52:00",5.9,0.2,0.0,0.0,0,1014.8,2,4,4.7,67
"2020-05-11 01:53:00",5.9,0.4,0.0,0.0,0,1014.8,3,6,3.9,68
"2020-05-11 01:54:00",6.0,0.5,0.0,0.0,0,1014.7,3,6,3.8,68
"2020-05-11 01:55:00",6.0,0.5,0.0,0.0,0,1014.8,3,5,4.3,68
"2020-05-11 01:56:00",5.9,0.2,0.0,0.0,0,1014.7,4,7,3.5,67
"2020-05-11 01:57:00",6.0,0.3,0.0,0.0,0,1014.8,2,3,"",67
"2020-05-11 01:58:00",5.9,0.4,0.0,0.0,0,1014.8,3,6,3.8,68
"2020-05-11 01:59:00",5.9,0.2,0.0,0.0,0,1014.8,5,9,2.9,67
"2020-05-11 02:00:00",5.9,0.4,0.0,0.0,0,1014.9,3,5,4.2,68
"2020-05-11 02:01:00",5.9,0.4,0.0,0.0,0,1014.8,2,4,4.6,68
"2020-05-11 02:02:00",5.9,0.4,0.0,0.0,0,1014.8,3,11,2.5,68
"2020-05-11 02:03:00",5.9,0.4,0.0,0.0,0,1014.8,5,9,2.9,68
"2020-05-11 02:04:00",5.9,0.2,0.0,0.0,0,1014.9,3,4,4.6,67
"2020-05-11 02:05:00",5.9,0.4,0.0,0.0,0,1014.9,2,6,3.8,68
"2020-05-11 02:06:00",5.9,0.4,0.0,0.0,0,1014.8,2,6,3.8,68
"2020-05-11 02:07:00",5.9,0.4,0.0,0.0,0,1014.9,3,8,3.2,68
"2020-05-11 02:08:00",5.9,0.4,0.0,0.0,0,1014.9,3,6,3.8,68
"2020-05-11 02:09:00",5.8,0.3,0.0,0.0,0,1014.9,2,6,3.7,68
"2020-05-11 02:10:00",5.8,0.1,0.0,0.0,0,1014.8,4,7,3.4,67
"2020-05-11 02:11:00",5.8,0.3,0.0,0.0,0,1014.9,2,5,4.1,68
"2020-05-11 02:12:00",5.9,0.4,0.0,0.0,0,1014.9,5,11,2.5,68
"2020-05-11 02:13:00",5.9,0.4,0.0,0.0,0,1014.8,3,6,3.8,68
"2020-05-11 02:14:00",5.9,0.4,0.0,0.0,0,1014.9,2,3,"",68
"2020-05-11 02:15:00",5.9,0.4,0.0,0.0,0,1014.8,4,8,3.1,68
"2020-05-11 02:16:00",5.8,0.3,0.0,0.0,0,1014.9,2,3,"",68
"2020-05-11 02:17:00",5.8,0.3,0.0,0.0,0,1014.9,3,6,3.8,68
"2020-05-11 02:18:00",5.8,0.3,0.0,0.0,0,1014.9,2,5,4.1,68
"2020-05-11 02:19:00",5.8,0.3,0.0,0.0,0,1014.9,2,4,4.5,68
"2020-05-11 02:20:00",5.7,0.3,0.0,0.0,0,1014.9,3,6,3.7,68
"2020-05-11 02:21:00",5.8,0.3,0.0,0.0,0,1014.8,7,13,2.0,68
"2020-05-11 02:22:00",5.8,0.3,0.0,0.0,0,1014.9,3,4,4.5,68
"2020-05-11 02:23:00",5.8,0.3,0.0,0.0,0,1014.8,3,5,4.1,68
"2020-05-11 02:24:00",5.8,0.3,0.0,0.0,0,1014.8,4,7,3.4,68
"2020-05-11 02:25:00",5.8,0.1,0.0,0.0,0,1014.9,2,5,4.1,67
"2020-05-11 02:26:00",5.8,0.3,0.0,0.0,0,1014.9,6,15,1.6,68
"2020-05-11 02:27:00",5.8,0.1,0.0,0.0,0,1014.8,4,11,2.4,67
"2020-05-11 02:28:00",5.8,0.1,0.0,0.0,0,1014.8,2,5,4.1,67
"2020-05-11 02:29:00",5.8,0.3,0.0,0.0,0,1014.8,3,8,3.1,68
"2020-05-11 02:30:00",5.8,0.1,0.0,0.0,0,1014.8,3,5,4.1,67
"2020-05-11 02:31:00",5.8,0.3,0.0,0.0,0,1014.9,4,11,2.4,68
"2020-05-11 02:32:00",5.8,0.3,0.0,0.0,0,1014.8,4,12,2.2,68
"2020-05-11 02:33:00",5.8,0.3,0.0,0.0,0,1014.9,3,6,3.7,68
"2020-05-11 02:34:00",5.8,0.3,0.0,0.0,0,1014.9,3,7,3.4,68
"2020-05-11 02:35:00",5.8,0.3,0.0,0.0,0,1014.9,4,10,2.6,68
"2020-05-11 02:36:00",5.8,0.3,0.0,0.0,0,1014.8,3,5,4.1,68
"2020-05-11 02:37:00",5.8,0.3,0.0,0.0,0,1014.8,3,4,4.5,68
"2020-05-11 02:38:00",5.8,0.3,0.0,0.0,0,1014.8,1,4,4.5,68
"2020-05-11 02:39:00",5.8,0.3,0.0,0.0,0,1014.9,4,7,3.4,68
"2020-05-11 02:40:00",5.7,0.3,0.0,0.0,0,1014.8,4,6,3.7,68
"2020-05-11 02:41:00",5.8,0.3,0.0,0.0,0,1014.9,2,4,4.4,68
"2020-05-11 02:42:00",5.8,0.3,0.0,0.0,0,1014.9,4,6,3.7,68
"2020-05-11 02:43:00",5.8,0.3,0.0,0.0,0,1014.8,4,9,2.8,68
"2020-05-11 02:44:00",5.8,0.3,0.0,0.0,0,1014.8,3,7,3.4,68
"2020-05-11 02:45:00",5.8,0.3,0.0,0.0,0,1014.8,3,4,4.4,68
"2020-05-11 02:46:00",5.8,0.5,0.0,0.0,0,1014.9,4,10,2.6,69
"2020-05-11 02:47:00",5.8,0.3,0.0,0.0,0,1015.0,4,9,2.8,68
"2020-05-11 02:48:00",5.8,0.5,0.0,0.0,0,1014.9,3,7,3.4,69
"2020-05-11 02:49:00",5.8,0.5,0.0,0.0,0,1015.0,3,6,3.7,69
"2020-05-11 02:50:00",5.7,0.5,0.0,0.0,0,1014.9,4,6,3.7,69
"2020-05-11 02:51:00",5.7,0.5,0.0,0.0,0,1014.9,3,5,3.9,69
"2020-05-11 02:52:00",5.7,0.5,0.0,0.0,0,1014.9,3,5,3.9,69
"2020-05-11 02:53:00",5.7,0.5,0.0,0.0,0,1014.8,3,7,3.2,69
"2020-05-11 02:54:00",5.7,0.5,0.0,0.0,0,1015.0,4,6,3.6,69
"2020-05-11 02:55:00",5.7,0.5,0.0,0.0,0,1014.9,3,8,3.0,69
"2020-05-11 02:56:00",5.7,0.5,0.0,0.0,0,1014.9,4,9,2.7,69
"2020-05-11 02:57:00",5.7,0.5,0.0,0.0,0,1014.9,4,11,2.2,69
"2020-05-11 02:58:00",5.7,0.5,0.0,0.0,0,1014.9,3,5,3.9,69
"2020-05-11 02:59:00",5.7,0.5,0.0,0.0,0,1014.9,4,7,3.2,69
"2020-05-11 03:00:00",5.7,0.5,0.0,0.0,0,1015.0,3,6,3.6,69
"2020-05-11 03:01:00",5.7,0.5,0.0,0.0,0,1014.9,4,6,3.6,69
"2020-05-11 03:02:00",5.7,0.5,0.0,0.0,0,1014.9,3,7,3.2,69
"2020-05-11 03:03:00",5.7,0.5,0.0,0.0,0,1015.0,3,7,3.2,69
"2020-05-11 03:04:00",5.7,0.5,0.0,0.0,0,1014.9,2,6,3.6,69
"2020-05-11 03:05:00",5.7,0.5,0.0,0.0,0,1014.9,3,5,3.9,69
"2020-05-11 03:06:00",5.7,0.3,0.0,0.0,0,1015.0,4,11,2.2,68
"2020-05-11 03:07:00",5.7,0.3,0.0,0.0,0,1015.0,3,7,3.2,68
"2020-05-11 03:08:00",5.7,0.0,0.0,0.0,0,1015.0,5,12,2.0,67
"2020-05-11 03:09:00",5.7,0.0,0.0,0.0,0,1015.0,3,7,3.2,67
"2020-05-11 03:10:00",5.7,0.0,0.0,0.0,0,1015.0,3,6,3.6,67
"2020-05-11 03:11:00",5.7,0.0,0.0,0.0,0,1015.0,4,6,3.4,67
"2020-05-11 03:12:00",5.7,0.0,0.0,0.0,0,1014.9,4,9,2.7,67
"2020-05-11 03:13:00",5.7,"-0.2",0.0,0.0,0,1015.0,2,5,3.9,66
"2020-05-11 03:14:00",5.7,0.0,0.0,0.0,0,1015.1,4,9,2.7,67
"2020-05-11 03:15:00",5.7,0.0,0.0,0.0,0,1015.1,4,7,3.2,67
"2020-05-11 03:16:00",5.7,0.0,0.0,0.0,0,1015.0,3,4,4.4,67
"2020-05-11 03:17:00",5.7,0.0,0.0,0.0,0,1015.1,3,5,3.9,67
"2020-05-11 03:18:00",5.7,"-0.2",0.0,0.0,0,1015.0,3,4,4.4,66
"2020-05-11 03:19:00",5.7,"-0.2",0.0,0.0,0,1015.0,6,15,1.5,66
"2020-05-11 03:20:00",5.6,"-0.3",0.0,0.0,0,1015.0,3,4,4.3,66
"2020-05-11 03:21:00",5.7,"-0.2",0.0,0.0,0,1015.0,2,5,3.9,66
"2020-05-11 03:22:00",5.7,"-0.2",0.0,0.0,0,1014.9,3,5,3.9,66
"2020-05-11 03:23:00",5.6,0.0,0.0,0.0,0,1015.0,4,7,3.1,67
"2020-05-11 03:24:00",5.6,0.0,0.0,0.0,0,1015.0,2,7,3.2,67
"2020-05-11 03:25:00",5.6,"-0.3",0.0,0.0,0,1015.0,5,8,2.8,66
"2020-05-11 03:26:00",5.6,"-0.3",0.0,0.0,0,1015.0,4,8,2.8,66
"2020-05-11 03:27:00",5.6,"-0.3",0.0,0.0,0,1015.0,3,5,3.8,66
"2020-05-11 03:28:00",5.6,"-0.3",0.0,0.0,0,1015.0,4,8,2.8,66
"2020-05-11 03:29:00",5.6,"-0.3",0.0,0.0,0,1015.0,4,6,3.4,66
"2020-05-11 03:30:00",5.6,"-0.3",0.0,0.0,0,1014.9,3,6,3.4,66
"2020-05-11 03:31:00",5.6,"-0.3",0.0,0.0,0,1014.9,2,5,3.8,66
"2020-05-11 03:32:00",5.6,"-0.5",0.0,0.0,0,1015.0,3,8,2.8,65
"2020-05-11 03:33:00",5.6,"-0.3",0.0,0.0,0,1014.9,2,4,4.3,66
"2020-05-11 03:34:00",5.6,"-0.3",0.0,0.0,0,1014.8,3,6,3.4,66
"2020-05-11 03:35:00",5.6,"-0.3",0.0,0.0,0,1014.9,6,9,2.6,66
"2020-05-11 03:36:00",5.6,"-0.3",0.0,0.0,0,1014.8,5,9,2.6,66
"2020-05-11 03:37:00",5.6,"-0.3",0.0,0.0,0,1014.9,4,7,3.1,66
"2020-05-11 03:38:00",5.6,"-0.5",0.0,0.0,0,1014.8,3,5,3.8,65
"2020-05-11 03:39:00",5.6,"-0.5",0.0,0.0,0,1014.7,3,5,3.8,65
"2020-05-11 03:40:00",5.6,"-0.5",0.0,0.0,0,1014.7,3,5,3.8,65
"2020-05-11 03:41:00",5.6,"-0.5",0.0,0.0,0,1014.7,2,5,3.8,65
"2020-05-11 03:42:00",5.6,"-0.5",0.0,0.0,0,1014.8,3,8,2.8,65
"2020-05-11 03:43:00",5.6,"-0.3",0.0,0.0,0,1014.8,3,5,3.8,66
"2020-05-11 03:44:00",5.5,"-0.6",0.0,0.0,0,1014.8,3,4,4.2,65
"2020-05-11 03:45:00",5.4,"-0.4",0.0,0.0,0,1014.7,3,7,2.9,66
"2020-05-11 03:46:00",5.5,"-0.4",0.0,0.0,0,1014.8,3,6,3.2,66
"2020-05-11 03:47:00",5.5,"-0.6",0.0,0.0,0,1014.8,3,8,2.7,65
"2020-05-11 03:48:00",5.5,"-0.6",0.0,0.0,0,1014.8,3,5,3.7,65
"2020-05-11 03:49:00",5.5,"-0.6",0.0,0.0,0,1014.8,2,4,4.2,65
"2020-05-11 03:50:00",5.5,"-0.6",0.0,0.0,0,1014.7,2,3,"",65
"2020-05-11 03:51:00",5.5,"-0.6",0.0,0.0,0,1014.8,2,3,"",65
"2020-05-11 03:52:00",5.5,"-0.4",0.0,0.0,0,1014.7,2,4,4.0,66
"2020-05-11 03:53:00",5.4,"-0.4",0.0,0.0,0,1014.7,2,3,"",66
"2020-05-11 03:54:00",5.4,"-0.4",0.0,0.0,0,1014.8,2,4,4.0,66
"2020-05-11 03:55:00",5.4,"-0.4",0.0,0.0,0,1014.8,4,6,3.2,66
"2020-05-11 03:56:00",5.4,"-0.4",0.0,0.0,0,1014.7,3,7,2.9,66
"2020-05-11 03:57:00",5.4,"-0.4",0.0,0.0,0,1014.8,3,4,4.0,66
"2020-05-11 03:58:00",5.4,"-0.4",0.0,0.0,0,1014.7,2,5,3.6,66
"2020-05-11 03:59:00",5.3,"-0.5",0.0,0.0,0,1014.7,1,2,"",66
"2020-05-11 04:00:00",5.3,"-0.5",0.0,0.0,0,1014.7,3,6,3.1,66
"2020-05-11 04:01:00",5.3,"-0.5",0.0,0.0,0,1014.7,3,6,3.1,66
"2020-05-11 04:02:00",5.3,"-0.5",0.0,0.0,0,1014.8,2,4,3.9,66
"2020-05-11 04:03:00",5.3,"-0.5",0.0,0.0,0,1014.8,3,8,2.5,66
"2020-05-11 04:04:00",5.3,"-0.5",0.0,0.0,0,1014.8,4,7,2.8,66
"2020-05-11 04:05:00",5.3,"-0.5",0.0,0.0,0,1014.9,2,4,3.9,66
"2020-05-11 04:06:00",5.3,"-0.5",0.0,0.0,0,1014.9,4,7,2.8,66
"2020-05-11 04:07:00",5.3,"-0.5",0.0,0.0,0,1014.9,3,7,2.8,66
"2020-05-11 04:08:00",5.3,"-0.5",0.0,0.0,0,1014.9,7,11,1.7,66
"2020-05-11 04:09:00",5.3,"-0.5",0.0,0.0,0,1014.9,3,6,3.1,66
"2020-05-11 04:10:00",5.3,"-0.3",0.0,0.0,0,1014.9,3,4,3.9,67
"2020-05-11 04:11:00",5.3,"-0.3",0.0,0.0,0,1014.9,2,3,"",67
"2020-05-11 04:12:00",5.3,"-0.3",0.0,0.0,0,1014.9,3,4,3.9,67
"2020-05-11 04:13:00",5.3,"-0.3",0.0,0.0,0,1014.9,3,4,3.9,67
"2020-05-11 04:14:00",5.4,"-0.2",0.0,0.0,0,1014.9,3,5,3.5,67
"2020-05-11 04:15:00",5.3,"-0.3",0.0,0.0,0,1014.8,3,5,3.6,67
"2020-05-11 04:16:00",5.3,"-0.5",0.0,0.0,0,1014.8,3,6,3.1,66
"2020-05-11 04:17:00",5.3,"-0.5",0.0,0.0,0,1014.9,2,4,3.9,66
"2020-05-11 04:18:00",5.3,"-0.3",0.0,0.0,0,1014.8,5,11,1.7,67
"2020-05-11 04:19:00",5.3,"-0.5",0.0,0.0,0,1014.9,4,9,2.2,66
"2020-05-11 04:20:00",5.4,"-0.2",0.0,0.0,0,1014.8,3,9,2.3,67
"2020-05-11 04:21:00",5.3,"-0.3",0.0,0.0,0,1014.8,4,12,1.5,67
"2020-05-11 04:22:00",5.4,"-0.2",0.0,0.0,0,1014.9,3,4,3.9,67
"2020-05-11 04:23:00",5.3,"-0.3",0.0,0.0,0,1014.8,3,8,2.5,67
"2020-05-11 04:24:00",5.3,"-0.3",0.0,0.0,0,1014.9,2,4,3.9,67
"2020-05-11 04:25:00",5.3,"-0.3",0.0,0.0,0,1014.9,3,6,3.1,67
"2020-05-11 04:26:00",5.3,"-0.3",0.0,0.0,0,1014.9,3,10,2.0,67
"2020-05-11 04:27:00",5.3,"-0.3",0.0,0.0,0,1014.9,3,9,2.2,67
"2020-05-11 04:28:00",5.3,"-0.1",0.0,0.0,0,1014.9,4,13,1.3,68
"2020-05-11 04:29:00",5.3,"-0.1",0.0,0.0,0,1014.9,4,8,2.5,68
"2020-05-11 04:30:00",5.3,"-0.1",0.0,0.0,0,1014.9,3,4,3.9,68
"2020-05-11 04:31:00",5.3,"-0.1",0.0,0.0,0,1014.9,2,4,3.9,68
"2020-05-11 04:32:00",5.3,"-0.1",0.0,0.0,0,1014.9,2,4,3.9,68
"2020-05-11 04:33:00",5.2,"-0.2",0.0,0.0,0,1014.9,2,4,3.9,68
"2020-05-11 04:34:00",5.2,"-0.2",0.0,0.0,0,1014.9,3,10,1.8,68
"2020-05-11 04:35:00",5.2,0.0,0.0,0.0,0,1014.9,4,9,2.1,69
"2020-05-11 04:36:00",5.2,"-0.2",0.0,0.0,0,1015.0,4,11,1.6,68
"2020-05-11 04:37:00",5.2,"-0.2",0.0,0.0,0,1015.0,3,5,3.4,68
"2020-05-11 04:38:00",5.2,0.0,0.0,0.0,0,1015.0,2,4,3.8,69
"2020-05-11 04:39:00",5.2,0.0,0.0,0.0,0,1014.9,2,4,3.8,69
"2020-05-11 04:40:00",5.2,"-0.2",0.0,0.0,0,1015.0,2,3,"",68
"2020-05-11 04:41:00",5.2,"-0.2",0.0,0.0,0,1014.9,4,9,2.1,68
"2020-05-11 04:42:00",5.2,"-0.2",0.0,0.0,0,1015.0,2,4,3.8,68
"2020-05-11 04:43:00",5.2,0.0,0.0,0.0,0,1015.0,4,8,2.3,69
"2020-05-11 04:44:00",5.2,0.0,0.0,0.0,0,1015.0,2,4,3.8,69
"2020-05-11 04:45:00",5.3,0.1,0.0,0.0,0,1014.9,1,2,"",69
"2020-05-11 04:46:00",5.2,"-0.2",0.0,0.0,0,1014.9,2,4,3.8,68
"2020-05-11 04:47:00",5.2,"-0.2",0.0,0.0,0,1014.9,2,3,"",68
"2020-05-11 04:48:00",5.2,0.0,0.0,0.0,0,1014.9,3,4,3.8,69
"2020-05-11 04:49:00",5.2,0.0,0.0,0.0,0,1015.0,3,7,2.5,69
"2020-05-11 04:50:00",5.1,"-0.1",0.0,0.0,0,1014.9,4,6,2.9,69
"2020-05-11 04:51:00",5.1,"-0.1",0.0,0.0,0,1015.0,2,4,3.7,69
"2020-05-11 04:52:00",5.2,0.0,0.0,0.0,0,1015.0,2,5,3.2,69
"2020-05-11 04:53:00",5.1,"-0.1",0.0,0.0,0,1015.0,2,3,"",69
"2020-05-11 04:54:00",5.1,"-0.1",0.0,0.0,0,1015.0,2,3,"",69
"2020-05-11 04:55:00",5.0,0.0,0.0,0.0,0,1015.0,3,6,2.7,70
"2020-05-11 04:56:00",5.0,"-0.2",0.0,0.0,0,1014.9,3,8,2.1,69
"2020-05-11 04:57:00",5.1,"-0.1",0.0,0.0,0,1015.0,2,3,"",69
"2020-05-11 04:58:00",5.1,"-0.1",0.0,0.0,0,1015.0,4,7,2.5,69
"2020-05-11 04:59:00",5.0,"-0.2",0.0,0.0,0,1015.1,3,6,2.9,69
"2020-05-11 05:00:00",5.0,"-0.2",0.0,0.0,0,1015.0,2,6,2.7,69
"2020-05-11 05:01:00",5.0,"-0.2",0.0,0.0,0,1015.1,3,6,2.7,69
"2020-05-11 05:02:00",5.0,"-0.2",0.0,0.0,0,1015.1,3,5,3.1,69
"2020-05-11 05:03:00",5.0,"-0.2",0.0,0.0,0,1015.0,2,4,3.6,69
"2020-05-11 05:04:00",5.0,"-0.2",0.0,0.0,0,1015.0,1,2,"",69
"2020-05-11 05:05:00",5.0,"-0.2",0.0,0.0,0,1014.9,2,4,3.6,69
"2020-05-11 05:06:00",5.0,"-0.2",0.0,0.0,0,1014.9,2,5,3.1,69
"2020-05-11 05:07:00",5.0,"-0.2",0.0,0.0,0,1015.0,2,4,3.6,69
"2020-05-11 05:08:00",5.0,"-0.2",0.0,0.0,0,1014.9,4,9,1.8,69
"2020-05-11 05:09:00",5.0,"-0.2",0.0,0.0,0,1014.9,3,6,2.7,69
"2020-05-11 05:10:00",5.0,"-0.2",0.0,0.0,0,1015.0,3,7,2.4,69
"2020-05-11 05:11:00",5.0,"-0.2",0.0,0.0,0,1015.0,3,5,3.1,69
"2020-05-11 05:12:00",5.0,"-0.2",0.0,0.0,0,1015.0,2,4,3.6,69
"2020-05-11 05:13:00",5.0,"-0.2",0.0,0.0,0,1015.0,2,7,2.4,69
"2020-05-11 05:14:00",5.0,"-0.2",0.0,0.0,0,1015.0,2,3,"",69
"2020-05-11 05:15:00",4.9,"-0.3",0.0,0.0,0,1015.0,4,7,2.4,69
"2020-05-11 05:16:00",5.0,0.0,0.0,0.0,0,1014.9,2,4,3.5,70
"2020-05-11 05:17:00",4.9,"-0.1",0.0,0.0,0,1014.9,2,4,3.5,70
"2020-05-11 05:18:00",5.0,0.0,0.0,0.0,0,1015.0,2,3,"",70
"2020-05-11 05:19:00",5.0,0.0,0.0,0.0,0,1015.0,2,4,3.6,70
"2020-05-11 05:20:00",5.0,0.0,0.0,0.0,0,1015.1,1,3,"",70
"2020-05-11 05:21:00",5.0,0.0,0.0,0.0,0,1015.0,3,5,3.1,70
"2020-05-11 05:22:00",5.0,0.0,0.0,0.0,0,1015.1,3,5,3.1,70
"2020-05-11 05:23:00",5.0,0.0,0.0,0.0,5,1015.0,3,6,2.7,70
"2020-05-11 05:24:00",5.0,0.0,0.0,0.0,5,1015.0,3,6,2.9,70
"2020-05-11 05:25:00",5.1,0.1,0.0,0.0,5,1015.0,1,2,"",70
"2020-05-11 05:26:00",5.1,0.3,0.0,0.0,5,1015.0,2,4,3.7,71
"2020-05-11 05:27:00",5.0,0.2,0.0,0.0,5,1015.0,1,3,"",71
"2020-05-11 05:28:00",5.0,0.2,0.0,0.0,5,1015.0,4,8,2.1,71
"2020-05-11 05:29:00",5.0,0.2,0.0,0.0,5,1015.0,2,3,"",71
"2020-05-11 05:30:00",5.0,0.2,0.0,0.0,5,1015.0,3,5,3.1,71
"2020-05-11 05:31:00",5.1,0.3,0.0,0.0,5,1015.0,5,7,2.4,71
"2020-05-11 05:32:00",5.1,0.3,0.0,0.0,7,1015.0,3,9,2.0,71
"2020-05-11 05:33:00",5.1,0.1,0.0,0.0,7,1014.9,5,12,1.3,70
"2020-05-11 05:34:00",5.1,0.1,0.0,0.0,7,1015.1,3,10,1.7,70
"2020-05-11 05:35:00",5.1,0.1,0.0,0.0,7,1015.0,3,5,3.2,70
"2020-05-11 05:36:00",5.1,0.1,0.0,0.0,7,1015.0,2,4,3.7,70
"2020-05-11 05:37:00",5.2,0.2,0.0,0.0,7,1015.1,4,7,2.5,70
"2020-05-11 05:38:00",5.2,0.2,0.0,0.0,7,1015.1,1,3,"",70
"2020-05-11 05:39:00",5.2,0.4,0.0,0.0,7,1015.1,3,5,3.4,71
"2020-05-11 05:40:00",5.2,0.4,0.0,0.0,9,1015.1,3,5,3.4,71
"2020-05-11 05:41:00",5.2,0.2,0.0,0.0,9,1015.2,3,6,3.0,70
"2020-05-11 05:42:00",5.1,0.1,0.0,0.0,9,1015.1,4,8,2.3,70
"2020-05-11 05:43:00",5.2,0.2,0.0,0.0,11,1015.0,2,4,3.7,70
"2020-05-11 05:44:00",5.2,0.2,0.0,0.0,11,1015.1,1,2,"",70
"2020-05-11 05:45:00",5.2,0.2,0.0,0.0,12,1015.1,2,4,3.8,70
"2020-05-11 05:46:00",5.2,0.2,0.0,0.0,14,1015.1,3,6,3.0,70
"2020-05-11 05:47:00",5.2,0.2,0.0,0.0,14,1015.1,2,4,3.8,70
"2020-05-11 05:48:00",5.1,0.3,0.0,0.0,16,1015.2,3,8,2.3,71
"2020-05-11 05:49:00",5.1,0.1,0.0,0.0,16,1015.1,3,7,2.5,70
"2020-05-11 05:50:00",5.2,0.2,0.0,0.0,18,1015.1,3,5,3.2,70
"2020-05-11 05:51:00",5.2,0.2,0.0,0.0,19,1015.1,3,6,3.0,70
"2020-05-11 05:52:00",5.2,0.2,0.0,0.0,21,1015.2,4,11,1.6,70
"2020-05-11 05:53:00",5.2,0.2,0.0,0.0,21,1015.2,3,5,3.4,70
"2020-05-11 05:54:00",5.2,0.2,0.0,0.0,21,1015.2,3,8,2.3,70
"2020-05-11 05:55:00",5.2,0.2,0.0,0.0,21,1015.2,3,5,3.4,70
"2020-05-11 05:56:00",5.3,0.3,0.0,0.0,28,1015.3,3,4,3.8,70
"2020-05-11 05:57:00",5.3,0.3,0.0,0.0,30,1015.2,3,4,3.9,70
"2020-05-11 05:58:00",5.3,0.3,0.0,0.0,32,1015.2,3,6,3.1,70
"2020-05-11 05:59:00",5.3,0.1,0.0,0.0,35,1015.3,4,8,2.5,69
"2020-05-11 06:00:00",5.3,0.1,0.0,0.0,39,1015.3,4,6,3.1,69
"2020-05-11 06:01:00",5.3,"-0.1",0.0,0.0,39,1015.3,4,8,2.5,68
"2020-05-11 06:02:00",5.4,0.0,0.0,0.0,39,1015.3,4,6,3.1,68
"2020-05-11 06:03:00",5.4,0.0,0.0,0.0,30,1015.2,3,6,3.2,68
"2020-05-11 06:04:00",5.4,0.0,0.0,0.0,25,1015.3,3,6,3.2,68
"2020-05-11 06:05:00",5.4,0.0,0.0,0.0,26,1015.3,2,3,"",68
"2020-05-11 06:06:00",5.5,0.3,0.0,0.0,28,1015.4,2,3,"",69
"2020-05-11 06:07:00",5.4,0.0,0.0,0.0,26,1015.3,3,5,3.6,68
"2020-05-11 06:08:00",5.4,0.2,0.0,0.0,25,1015.4,2,4,4.0,69
"2020-05-11 06:09:00",5.4,0.2,0.0,0.0,25,1015.3,2,3,"",69
"2020-05-11 06:10:00",5.5,0.3,0.0,0.0,26,1015.4,2,5,3.7,69
"2020-05-11 06:11:00",5.5,0.1,0.0,0.0,33,1015.3,4,8,2.6,68
"2020-05-11 06:12:00",5.4,0.2,0.0,0.0,42,1015.3,4,10,2.2,69
"2020-05-11 06:13:00",5.4,0.2,0.0,0.0,47,1015.3,3,5,3.7,69
"2020-05-11 06:14:00",5.4,0.0,0.0,0.0,49,1015.4,5,8,2.6,68
"2020-05-11 06:15:00",5.5,0.1,0.0,0.0,53,1015.5,3,6,3.3,68
"2020-05-11 06:16:00",5.5,0.1,0.0,0.0,40,1015.3,4,9,2.3,68
"2020-05-11 06:17:00",5.5,0.3,0.0,0.0,39,1015.3,2,4,4.2,69
"2020-05-11 06:18:00",5.6,0.4,0.0,0.0,39,1015.4,2,4,4.2,69
"2020-05-11 06:19:00",5.6,0.4,0.0,0.0,35,1015.4,5,13,1.7,69
"2020-05-11 06:20:00",5.6,0.4,0.0,0.0,35,1015.3,4,7,3.1,69
"2020-05-11 06:21:00",5.6,0.4,0.0,0.0,37,1015.4,4,8,2.8,69
"2020-05-11 06:22:00",5.6,0.4,0.0,0.0,37,1015.4,3,9,2.6,69
"2020-05-11 06:23:00",5.6,0.4,0.0,0.0,37,1015.3,5,8,2.8,69
"2020-05-11 06:24:00",5.6,0.4,0.0,0.0,37,1015.3,5,11,2.1,69
"2020-05-11 06:25:00",5.7,0.5,0.0,0.0,37,1015.4,2,5,3.8,69
"2020-05-11 06:26:00",5.7,0.5,0.0,0.0,37,1015.4,3,9,2.7,69
"2020-05-11 06:27:00",5.7,0.3,0.0,0.0,40,1015.5,3,5,3.9,68
"2020-05-11 06:28:00",5.7,0.5,0.0,0.0,40,1015.4,3,8,3.0,69
"2020-05-11 06:29:00",5.7,0.3,0.0,0.0,40,1015.4,4,9,2.7,68
"2020-05-11 06:30:00",5.7,0.5,0.0,0.0,39,1015.5,4,9,2.7,69
"2020-05-11 06:31:00",5.7,0.3,0.0,0.0,39,1015.4,3,6,3.6,68
"2020-05-11 06:32:00",5.7,0.3,0.0,0.0,37,1015.4,2,3,"",68
"2020-05-11 06:33:00",5.7,0.5,0.0,0.0,35,1015.6,2,4,4.4,69
"2020-05-11 06:34:00",5.7,0.5,0.0,0.0,32,1015.5,3,6,3.6,69
"2020-05-11 06:35:00",5.8,0.5,0.0,0.0,30,1015.5,3,8,3.0,69
"2020-05-11 06:36:00",5.7,0.5,0.0,0.0,37,1015.6,2,4,4.4,69
"2020-05-11 06:37:00",5.8,0.7,0.0,0.0,42,1015.6,2,3,"",70
"2020-05-11 06:38:00",5.8,0.7,0.0,0.0,44,1015.6,3,5,4.1,70
"2020-05-11 06:39:00",5.8,0.7,0.0,0.0,44,1015.6,3,7,3.4,70
"2020-05-11 06:40:00",5.8,0.7,0.0,0.0,42,1015.6,2,4,4.5,70
"2020-05-11 06:41:00",5.8,0.7,0.0,0.0,42,1015.6,2,4,4.5,70
"2020-05-11 06:42:00",5.8,0.7,0.0,0.0,44,1015.7,5,8,3.1,70
"2020-05-11 06:43:00",5.8,0.7,0.0,0.0,44,1015.7,4,8,3.1,70
"2020-05-11 06:44:00",5.8,0.7,0.0,0.0,44,1015.7,4,7,3.4,70